Location: Napier
(39.4830°S, 176.9170°E)
Time: 13:21:17
(UTC+12:00)

ISS - Visible Passes

Search period start: 01 July 2022 00:00
Search period end: 11 July 2022 00:00
Orbit: 414 x 420 km, 51.6° (Epoch: 30 June)

Date Brightness Start Highest point End Pass type
(mag) Time Alt. Az. Time Alt. Az. Time Alt. Az.
01 Jul -1.0 18:58:23 10° SSW 18:58:46 12° SSW 18:58:46 12° SSW visible
02 Jul -1.7 18:10:25 10° SSW 18:12:23 14° SSE 18:12:40 14° SSE visible
03 Jul -1.5 18:58:22 10° SW 18:59:35 19° SSW 18:59:35 19° SSW visible
04 Jul -2.4 18:10:20 10° SSW 18:13:08 23° SSE 18:13:41 22° SE visible
05 Jul -2.8 18:58:28 10° SW 19:00:53 43° SW 19:00:53 43° SW visible
06 Jul -3.5 18:10:17 10° SW 18:13:37 48° SSE 18:15:21 24° E visible
06 Jul -0.4 19:47:44 10° W 19:48:20 13° W 19:48:20 13° W visible
07 Jul -2.0 18:58:56 10° WSW 19:02:00 31° NW 19:03:08 25° N visible
08 Jul -3.1 18:10:27 10° WSW 18:13:49 57° NW 18:17:08 10° NE visible
09 Jul -0.3 19:00:59 10° WNW 19:01:49 11° NW 19:02:40 10° NW visible
10 Jul -0.8 18:11:14 10° W 18:13:43 19° NW 18:16:12 10° N visible
